Location: Ferchesar
(52.6477°N, 12.4298°E)
Time: 09:39:42
(UTC+01:00)

AO-73 - Pass Details

Date: 29 October 2021
Orbit: 581 x 661 km, 97.6° (Epoch: 28 November)

Event Time Altitude Azimuth Distance (km) Brightness Sun altitude
Rises 04:17:34 0° 33° (NNE) 2,834 ? -33.9°
Maximum altitude 04:22:30 10° 84° (E) 1,944 ? -33.2°
Drops below altitude 10° 04:22:35 10° 86° (E) 1,945 ? -33.2°
Sets 04:27:27 0° 136° (SE) 2,863 ? -32.5°
